Dewpoint
57 58 60 61 63 65 66 66 66 67 67 66 67 68 66 64 63 60 63 67 67 67 67 68 68 68 67 67 67 66 64 67 68
61 61 60 61 62 64 65 65 66 66 66 67 67 66 65 64 60 60 65 66 66 66 67 67 68 68 68 67 67 67 66 65 66
58 62 63 63 64 64 64 65 66 66 66 66 66 65 64 63 61 64 65 67 66 67 66 66 66 68 68 67 67 66 66 66 67
56 60 60 62 63 63 64 64 65 65 65 65 65 64 63 62 63 63 65 66 66 66 65 65 65 66 66 67 67 67 66 66 66
55 57 58 60 61 62 63 63 63 64 64 64 63 63 63 62 63 64 65 66 66 65 64 65 64 65 65 66 66 66 66 66 66
54 55 55 57 59 60 60 61 62 63 63 62 62 62 62 62 62 63 65 65 65 65 65 64 64 64 65 66 66 66 65 64 63
51 51 52 54 55 59 60 60 60 61 61 60 61 61 61 60 60 62 64 64 64 64 64 64 64 64 65 65 66 65 64 63 61
51 51 51 52 52 55 57 58 58 58 59 59 58 58 59 58 57 60 62 63 64 64 64 64 64 65 66 65 65 63 62 61 61
47 48 49 48 49 50 53 54 54 56 56 56 55 55 56 56 56 57 59 62 63 63 63 64 65 65 65 64 63 61 61 61 59
45 45 45 45 44 46 48 51 54 54 53 54 54 53 53 54 54 55 57 59 61 61 62 63 63 64 64 63 61 61 60 59 59
43 42 41 40 42 46 48 49 51 53 52 52 52 51 52 52 52 52 53 55 58 60 61 61 62 62 63 63 62 60 60 60 59
39 38 38 38 39 43 46 48 49 50 51 50 50 50 50 50 49 50 50 51 53 56 58 59 60 61 61 61 60 61 59 59 59
36 37 37 38 40 43 44 45 46 48 48 48 49 48 48 48 47 47 47 48 48 50 52 54 56 58 59 60 60 59 59 59 60
35 35 35 37 39 42 44 45 45 45 46 46 46 46 46 45 45 45 45 45 46 46 48 49 52 54 56 58 59 59 59 59 59
33 33 33 36 37 40 44 45 45 43 42 43 44 44 43 43 43 42 42 42 43 44 45 46 47 49 52 54 57 58 58 58 58
32 32 33 34 35 34 36 42 42 39 42 44 44 43 43 43 42 42 41 41 41 40 40 41 44 43 48 51 53 56 56 56 56
32 32 32 33 34 34 34 34 34 35 37 39 43 42 42 41 41 39 39 39 38 38 37 37 39 41 43 47 49 52 54 54 55
32 31 32 32 34 34 35 36 35 33 35 36 37 33 37 39 39 37 36 35 36 36 36 34 35 37 39 42 45 49 51 52 52
32 32 32 32 34 33 32 34 34 35 32 34 36 36 35 33 36 38 35 34 34 34 34 34 33 33 32 38 44 45 49 49 50
32 31 32 32 33 33 33 33 32 32 33 33 32 32 32 31 31 35 34 33 34 34 33 33 32 32 29 32 40 42 44 45 46
Wind_Speed
4 3 3 3 3 3 6 6 7 6 5 5 5 4 6 9 8 7 9 10 10 9 8 8 8 8 6 4 5 9 7 2 4
5 5 4 2 3 3 5 8 7 7 6 5 5 4 8 10 3 7 13 11 11 8 6 7 5 5 5 5 3 4 6 3 0
8 13 13 10 10 6 9 10 11 9 8 6 4 3 5 9 4 14 13 12 8 8 6 3 3 3 4 5 5 1 3 3 3
6 12 11 10 13 11 13 14 13 10 9 7 5 5 6 7 16 14 11 10 7 7 8 5 3 2 3 6 6 6 4 6 6
8 13 10 10 10 9 11 11 9 8 7 6 9 11 12 13 14 13 15 12 7 7 7 6 5 5 6 7 9 10 12 15 13
10 6 6 8 9 8 8 9 9 6 8 11 16 18 15 16 15 13 18 13 12 12 10 6 4 4 7 10 14 16 15 15 16
8 7 5 5 4 5 6 7 9 9 9 10 14 13 15 15 14 15 23 14 13 14 13 10 6 4 8 10 10 11 10 12 12
6 5 3 2 5 2 4 8 10 10 10 13 14 13 13 12 13 17 21 23 15 14 15 15 8 9 13 11 10 11 12 12 11
8 8 8 7 6 8 9 8 8 15 17 14 15 14 12 11 10 16 20 22 22 21 16 17 12 12 13 13 12 12 12 11 11
8 8 8 7 7 9 7 8 12 13 14 14 13 12 13 12 10 10 20 21 22 22 26 20 15 14 11 11 11 12 9 8 7
8 8 8 9 7 8 8 8 11 14 13 12 12 13 12 12 11 9 10 21 21 21 22 23 23 16 11 10 11 9 7 2 8
7 8 9 6 3 6 7 8 12 14 13 13 12 11 10 11 11 9 9 10 20 20 22 21 22 22 21 14 7 8 5 6 9
7 9 8 5 5 6 7 10 10 12 12 13 11 13 12 13 13 13 12 11 11 15 21 21 23 22 21 19 18 15 13 15 14
9 9 5 6 7 7 6 8 11 13 15 14 13 12 12 12 12 13 13 12 12 11 16 20 21 22 23 21 19 16 15 20 23
9 8 6 7 8 8 9 10 11 9 13 13 13 12 13 13 13 12 11 13 14 13 12 11 12 19 21 22 22 17 18 21 24
9 9 7 8 9 7 8 7 10 9 7 11 11 11 12 12 11 11 11 12 12 14 14 12 12 13 17 21 23 23 20 19 22
8 9 8 9 9 8 6 7 6 4 5 2 7 6 4 8 9 8 9 10 11 11 13 13 13 13 12 16 22 23 19 19 21
8 9 9 8 10 9 7 5 4 6 3 7 3 4 4 8 5 8 8 9 9 8 9 11 13 13 13 15 15 19 20 20 22
8 8 9 9 10 10 7 6 5 4 7 4 6 8 4 4 5 4 6 8 8 8 8 9 11 13 13 14 15 16 17 18 19
8 9 9 9 10 9 9 8 7 8 7 5 3 5 5 4 3 5 5 5 7 7 7 8 8 9 11 10 12 14 13 14 16
Wind_Direction
20 23 15 13 5 21 55 69 60 53 62 65 48 26 335 325 320 36 60 63 55 46 35 35 43 42 41 63 94 136 158 62 111
41 128 95 87 61 65 86 69 72 62 63 71 69 13 335 324 25 73 70 52 41 29 16 26 23 40 40 47 73 134 155 171 182
81 68 60 63 58 72 69 73 72 64 61 61 53 17 353 324 44 75 62 45 36 17 3 342 16 40 43 45 52 44 148 101 358
110 70 60 58 56 67 58 63 65 56 47 41 17 344 349 335 55 59 46 27 19 25 22 27 50 72 51 64 63 59 70 159 185
60 46 40 49 52 61 69 66 74 53 45 34 11 352 333 67 60 39 23 16 24 30 27 39 40 64 68 70 70 74 79 79 73
96 87 64 63 59 60 59 64 65 52 39 31 35 38 51 62 54 34 17 25 45 44 29 23 27 66 83 86 89 86 93 89 85
111 120 107 90 94 96 101 108 91 68 55 43 44 53 59 56 53 38 24 30 44 44 40 30 30 76 113 102 99 96 89 94 91
175 145 125 90 59 133 140 90 82 80 78 62 56 57 58 61 52 38 33 36 38 50 43 36 40 90 110 105 101 91 82 73 63
78 76 62 69 43 78 74 78 102 76 65 71 62 61 63 58 58 41 40 40 40 45 49 44 73 87 95 95 91 78 75 70 66
85 84 78 66 53 53 77 104 91 83 70 68 76 69 64 60 58 48 45 50 43 45 43 50 66 77 97 109 85 79 73 65 35
81 86 81 68 70 75 68 70 100 109 101 88 89 81 74 67 60 50 42 51 50 50 51 48 48 60 66 75 89 59 47 4 344
98 96 83 77 74 115 112 97 91 98 109 110 100 90 91 82 67 56 45 45 48 46 50 48 49 48 52 61 64 31 22 350 327
103 93 81 59 51 86 104 107 106 116 111 103 99 88 89 83 74 64 54 45 47 42 49 46 45 44 42 42 45 47 50 28 6
101 101 98 93 72 70 86 87 118 113 108 97 93 93 89 87 84 73 65 61 57 56 51 49 45 42 42 39 35 48 55 43 36
109 107 98 108 104 85 84 80 79 99 108 100 90 89 87 78 75 72 68 61 51 50 55 52 47 46 42 40 29 42 53 50 42
124 123 107 95 101 98 104 112 100 66 91 113 99 94 89 84 80 75 67 62 58 52 49 45 46 49 43 37 32 29 39 45 42
135 128 119 116 111 99 99 120 116 89 36 152 150 140 113 83 89 81 83 72 63 54 50 44 41 51 41 36 34 26 35 42 42
128 128 123 106 114 108 92 85 120 137 53 56 139 148 146 139 129 100 90 88 76 67 67 56 43 46 45 32 26 27 36 40 45
132 127 126 120 120 116 107 84 84 131 140 85 54 66 104 155 151 138 124 108 90 70 56 58 52 54 49 38 28 29 39 40 37
148 138 131 125 118 118 120 104 89 75 112 111 117 77 68 70 132 159 159 115 112 95 81 72 61 64 61 42 30 36 35 33 27